Weather History for West Palm Beach, FL

Change the Weather History Date:

Tuesday, February 12, 2013

  Actual Average Record
Temperature  
Mean Temperature 73 °F 68 °F  
Max Temperature 84 °F 76 °F 87 °F (1975)
Min Temperature 61 °F 59 °F 33 °F (1919)
Degree Days  
Heating Degree Days 0 2  
Month to date heating degree days 11 24  
Since 1 July heating degree days 59 181  
Cooling Degree Days 8 4  
Month to date cooling degree days 51 48  
Year to date cooling degree days 272 156  
Growing Degree Days 22 (Base 50)    
Moisture  
Dew Point 64 °F    
Average Humidity 70    
Maximum Humidity 93    
Minimum Humidity 47    
Precipitation  
Precipitation 0.00 in 0.10 in 2.66 in (1984)
Month to date precipitation 0.06 1.14  
Year to date precipitation 0.85 4.27  
Snow  
Snow 0.00 in - - ()
Month to date snowfall 0.0  
Since 1 July snowfall 0.0  
Snow Depth 0.00 in    
Sea Level Pressure  
Sea Level Pressure 30.05 in    
Wind  
Wind Speed 8 mph (South)    
Max Wind Speed 20 mph    
Max Gust Speed 25 mph    
Visibility 10 miles    
Events      
T = Trace of Precipitation, MM = Missing Value Source: NWS Daily Summary

Daily Weather History Graph

Daily Weather History Graph

Search for Another Location

Airport:

Trip Planner

Search our weather history database for the weather conditions in past years. The results will help you decide how hot, cold, wet, or windy it might be!

Date:

Astronomy

Feb. 12, 2013 Rise Set
Actual Time 6:58 AM EST 6:11 PM EST
Civil Twilight 6:34 AM EST 6:34 PM EST
Nautical Twilight 6:07 AM EST 7:02 PM EST
Astronomical Twilight 5:40 AM EST 7:29 PM EST
Moon 8:14 AM EST (2/12) 8:47 PM EST (2/12)
Length of Visible Light 11h 59m
Length of Day
11h 12m
Waxing Crescent, 7% of the Moon is Illuminated
Feb 12
Waxing Crescent
Feb 17
First Quarter
Feb 25
Full
Mar 4
Last Quarter
Mar 11
New

Hourly Weather History & Observations

Time (EST) Temp. Heat Index Dew Point Humidity Pressure Visibility Wind Dir Wind Speed Gust Speed Precip Events Conditions
12:53 AM 71.1 °F - 62.1 °F 73% 30.11 in 10.0 mi SSE 8.1 mph - N/A   Partly Cloudy
1:53 AM 70.0 °F - 63.0 °F 78% 30.10 in 10.0 mi South 4.6 mph - N/A   Partly Cloudy
2:53 AM 66.0 °F - 62.1 °F 87% 30.09 in 10.0 mi Calm Calm - N/A   Partly Cloudy
3:53 AM 63.0 °F - 61.0 °F 93% 30.08 in 10.0 mi Calm Calm - N/A   Partly Cloudy
4:53 AM 64.0 °F - 61.0 °F 90% 30.08 in 10.0 mi Calm Calm - N/A   Partly Cloudy
5:53 AM 63.0 °F - 60.1 °F 90% 30.08 in 10.0 mi Calm Calm - N/A   Partly Cloudy
6:53 AM 63.0 °F - 61.0 °F 93% 30.09 in 10.0 mi Calm Calm - N/A   Scattered Clouds
7:53 AM 66.0 °F - 63.0 °F 90% 30.10 in 10.0 mi Calm Calm - N/A   Scattered Clouds
8:53 AM 73.9 °F - 66.0 °F 76% 30.10 in 10.0 mi South 8.1 mph - N/A   Scattered Clouds
9:53 AM 78.1 °F - 64.9 °F 64% 30.12 in 10.0 mi SSW 10.4 mph - N/A   Scattered Clouds
10:53 AM 78.1 °F - 64.0 °F 62% 30.11 in 10.0 mi SSW 6.9 mph - N/A   Scattered Clouds
11:53 AM 81.0 °F 82.5 °F 64.0 °F 56% 30.09 in 10.0 mi Variable 3.5 mph - N/A   Mostly Cloudy
12:53 PM 82.0 °F 82.7 °F 61.0 °F 49% 30.07 in 10.0 mi SSW 9.2 mph - N/A   Mostly Cloudy
1:53 PM 80.1 °F 81.9 °F 64.9 °F 60% 30.03 in 10.0 mi SSE 13.8 mph - N/A   Mostly Cloudy
2:53 PM 82.0 °F 84.1 °F 66.0 °F 58% 30.01 in 10.0 mi SSE 15.0 mph - N/A   Mostly Cloudy
3:53 PM 80.1 °F 82.1 °F 66.0 °F 62% 29.98 in 10.0 mi SSE 19.6 mph - N/A   Scattered Clouds
4:53 PM 79.0 °F - 66.9 °F 66% 29.98 in 10.0 mi SSE 13.8 mph - N/A   Scattered Clouds
5:53 PM 75.9 °F - 66.9 °F 74% 29.98 in 10.0 mi South 12.7 mph - N/A   Scattered Clouds
6:53 PM 75.9 °F - 66.9 °F 74% 29.97 in 10.0 mi South 13.8 mph 21.9 mph N/A   Scattered Clouds
7:53 PM 75.0 °F - 66.9 °F 76% 29.98 in 10.0 mi South 10.4 mph - N/A   Scattered Clouds
8:53 PM 75.0 °F - 66.9 °F 76% 30.01 in 10.0 mi South 8.1 mph - N/A   Mostly Cloudy
9:53 PM 73.9 °F - 66.9 °F 79% 30.02 in 10.0 mi South 9.2 mph - N/A   Scattered Clouds
10:53 PM 73.0 °F - 66.9 °F 81% 30.02 in 10.0 mi South 8.1 mph - N/A   Partly Cloudy
11:53 PM 72.0 °F - 66.9 °F 84% 30.01 in 10.0 mi South 5.8 mph - N/A   Partly Cloudy